RH
21 19 17 18 21 19 16 14 12 11 10 8 9 11 15 18 22 26 28 29 26 26 22 16 16 17 18 18 17 15 13 12 11 12 14 16 16 15 18 19 20 18 17 16 15 18 19 17 12
23 22 20 19 22 23 19 16 14 12 11 11 9 9 12 15 16 16 23 26 28 26 29 25 21 21 21 20 19 18 15 14 13 13 14 16 17 18 19 20 20 19 18 13 14 16 18 20 18
25 24 22 20 23 26 22 19 16 15 13 12 13 12 13 16 18 20 27 30 32 38 32 27 26 26 24 22 20 20 20 17 15 15 16 19 19 19 21 21 21 22 21 17 17 15 15 19 22
24 26 25 24 24 25 25 22 19 18 16 15 14 18 18 20 20 26 33 36 37 34 33 31 29 29 29 24 20 19 20 22 19 18 18 19 20 20 21 22 24 23 22 22 18 18 19 20 21
18 24 28 27 27 26 28 28 24 21 19 17 16 17 16 17 22 26 36 37 33 32 32 32 32 32 32 32 29 25 19 20 23 21 21 21 23 23 23 23 24 24 24 22 22 18 20 22 26
15 20 29 32 32 30 34 34 32 28 25 23 22 23 24 23 25 28 30 27 30 34 37 34 33 34 34 34 32 29 22 19 25 25 24 22 24 25 25 26 26 27 27 26 24 22 21 23 25
13 11 30 36 39 36 37 42 41 37 34 33 32 31 32 32 32 32 30 26 26 32 36 36 32 34 37 35 35 34 32 26 21 24 28 27 27 28 31 31 30 30 31 30 27 25 23 24 25
14 6 16 36 47 44 42 43 46 47 48 51 51 50 46 45 44 42 40 41 46 52 52 50 48 49 50 55 48 43 49 42 33 26 25 24 24 25 29 30 32 30 33 34 31 29 28 26 27
16 10 11 20 34 47 45 48 52 56 58 57 54 54 53 54 52 42 40 45 46 50 59 60 62 62 62 63 72 69 63 57 56 41 32 29 28 26 27 28 27 28 33 36 36 33 34 34 31
15 16 8 15 28 43 58 62 66 66 65 54 44 42 40 43 40 47 48 52 60 57 55 52 59 61 54 56 79 84 78 74 71 68 58 42 35 34 34 31 30 30 34 37 38 36 36 40 37
12 15 8 8 16 37 51 57 60 57 56 51 48 44 36 38 38 36 36 45 32 14 19 24 24 32 45 50 37 49 68 82 88 83 78 81 73 53 44 43 40 39 42 41 39 38 42 43 44
10 12 9 7 9 13 21 33 37 40 40 42 41 36 34 24 18 19 20 15 13 13 14 11 10 11 11 11 12 33 66 66 78 76 80 78 82 85 88 69 51 42 46 47 40 37 40 43 52
8 9 8 9 9 10 12 16 17 18 17 17 17 16 16 15 15 16 15 15 15 16 15 15 15 13 13 12 11 16 43 52 58 62 77 84 86 97 99 95 85 78 61 49 45 44 46 49 50
10 11 11 10 10 17 20 18 26 30 31 31 30 31 31 31 31 27 27 26 28 31 31 24 17 18 17 14 12 14 34 39 46 46 45 50 78 87 90 95 98 95 95 91 73 50 46 52 52
10 12 12 15 17 19 21 20 19 22 23 23 24 25 26 29 31 26 24 24 24 24 26 28 26 20 18 20 17 13 12 19 19 18 24 37 47 58 70 98 95 94 96 91 91 91 72 70 60
9 9 12 13 14 16 18 20 21 22 21 20 19 19 25 28 30 31 31 31 31 30 30 28 26 22 18 18 22 20 16 13 14 14 20 21 31 41 45 60 84 97 88 97 88 84 93 92 93
14 11 13 18 17 17 22 22 18 20 23 26 26 26 26 30 30 28 28 29 31 32 32 30 25 21 20 20 21 22 24 23 16 14 14 20 24 28 40 44 39 77 91 98 98 98 93 91 95
25 14 12 12 15 20 28 26 24 25 25 26 26 27 28 28 27 25 24 23 23 25 27 29 28 24 21 18 16 15 16 22 25 26 22 16 18 26 24 34 38 22 53 78 82 96 82 96 95
35 34 32 28 32 31 31 29 28 27 27 28 29 29 30 30 30 29 25 22 21 20 18 17 16 15 14 12 11 9 8 6 6 8 15 27 23 16 24 29 37 32 18 35 51 82 98 78 95
34 32 33 31 32 29 30 28 26 27 30 32 37 39 39 37 34 31 27 23 19 17 15 14 12 12 10 10 9 8 9 9 8 8 10 18 14 12 15 19 31 46 37 22 35 46 51 94 95
32 31 32 29 32 34 32 26 31 33 33 36 41 40 36 31 27 24 20 18 17 15 13 12 10 8 8 7 7 9 12 19 31 34 25 19 26 30 20 17 22 44 64 44 33 41 39 92 97
32 41 34 34 34 33 35 25 28 32 32 33 32 28 22 18 16 13 11 10 9 8 7 7 9 15 23 23 25 31 37 40 36 30 29 30 26 30 37 26 19 30 38 68 57 42 42 45 66
44 48 48 46 44 39 37 37 22 27 28 27 23 19 16 14 12 10 10 9 10 11 13 26 41 50 51 47 45 49 46 34 25 21 18 16 25 22 24 24 23 28 36 33 52 61 43 44 37
46 46 48 49 46 33 34 38 20 26 26 22 18 17 15 13 12 14 19 22 23 22 18 30 43 38 32 27 25 21 21 27 27 23 20 22 33 33 26 26 27 20 24 32 33 50 60 46 38
49 52 51 47 46 43 38 34 28 27 22 19 19 21 17 13 18 29 33 35 32 25 27 31 38 47 44 42 37 30 27 26 23 18 11 8 23 31 29 27 27 27 31 29 28 29 60 51 41
56 56 54 48 42 37 34 29 24 22 20 18 21 24 24 29 33 36 45 49 47 48 46 47 47 34 13 7 6 5 6 8 11 6 5 4 5 19 23 27 25 23 26 42 33 26 38 63 43
58 52 44 38 33 29 29 25 23 19 18 18 27 34 39 41 46 47 46 37 32 23 15 12 11 8 7 10 31 41 59 73 93 66 34 7 4 3 4 27 29 32 31 49 52 27 28 66 54
60 47 39 34 33 26 24 20 17 13 17 31 65 72 57 56 55 44 24 11 8 9 11 14 28 55 74 68 57 58 63 86 99 92 70 60 12 4 11 26 27 46 40 46 60 56 34 57 77
53 45 36 27 26 33 20 18 13 19 45 78 85 71 53 53 34 19 18 17 16 27 53 78 100 99 87 65 46 44 74 100 100 99 97 96 76 26 7 4 14 39 52 53 62 62 65 68 69
38 36 32 26 24 20 18 13 17 45 81 91 75 50 37 37 23 34 55 39 35 72 87 100 100 100 99 62 49 64 97 99 100 100 100 96 95 78 32 14 10 8 12 22 33 46 53 56 61
Wind_Speed
24 21 19 20 20 23 24 25 25 21 20 20 21 21 22 23 19 18 19 20 21 24 23 23 22 24 24 22 24 23 20 16 15 17 17 17 16 17 18 18 18 18 18 17 17 17 18 21 21
26 22 20 19 21 23 26 27 24 21 19 20 22 23 24 25 23 22 23 21 21 22 25 23 23 24 23 24 25 25 25 21 18 18 18 17 17 18 19 19 20 21 20 18 17 17 17 19 20
23 22 20 19 23 26 30 27 25 24 22 23 21 23 24 25 24 24 24 21 21 24 24 22 23 25 25 24 25 27 27 26 25 21 19 19 19 19 19 21 22 21 22 20 17 17 17 18 19
23 22 21 21 26 29 31 30 25 27 28 26 24 25 27 28 26 22 20 22 23 25 25 25 26 27 27 27 26 27 27 28 27 26 25 23 22 21 22 22 23 23 23 20 19 18 17 17 17
22 23 22 24 28 31 29 30 29 29 30 29 29 29 28 28 26 24 23 27 30 28 26 26 26 28 29 28 28 28 27 28 29 29 28 27 25 24 24 25 26 25 25 24 20 18 17 17 16
24 21 20 24 28 31 28 30 33 32 30 29 31 31 31 31 30 27 29 32 34 31 29 29 29 30 31 30 30 28 28 28 30 31 31 30 28 27 26 25 27 27 26 26 24 20 19 17 17
23 22 21 22 26 29 28 29 32 33 32 30 29 31 30 31 31 31 34 36 36 34 30 30 33 32 33 32 33 31 29 29 30 31 32 32 31 29 28 27 28 28 27 27 25 24 21 19 18
23 21 21 22 25 28 29 28 29 30 29 29 28 27 28 32 32 33 36 33 30 27 29 29 31 30 30 31 31 33 34 33 32 33 33 34 33 33 33 32 31 31 28 26 25 25 23 21 20
21 21 21 22 24 27 28 28 26 26 25 27 31 32 31 32 33 36 35 31 30 29 29 30 30 30 33 36 33 30 31 32 35 35 35 36 36 36 36 36 36 34 30 27 25 24 23 22 22
20 20 21 23 23 25 26 27 27 25 27 30 33 34 35 37 37 35 32 30 29 29 31 33 33 33 33 32 33 34 34 34 33 34 37 37 38 40 39 38 38 37 34 30 29 28 25 23 23
21 18 17 22 24 24 28 28 27 26 27 31 31 32 34 33 34 35 34 32 30 29 32 32 32 32 34 33 31 33 33 36 36 36 37 38 41 43 43 42 41 40 37 33 32 32 28 27 24
20 19 17 19 19 20 24 25 24 23 26 28 32 33 32 32 30 31 33 33 31 31 34 34 31 30 30 33 34 35 35 36 37 40 42 44 43 44 45 45 45 45 43 38 36 36 34 31 27
21 22 18 19 22 19 19 17 19 21 25 25 26 29 30 33 36 38 39 40 41 44 43 43 42 40 40 39 37 35 39 39 40 38 40 42 45 46 46 47 50 51 49 46 43 41 39 35 32
26 25 22 24 24 23 25 26 30 32 35 38 40 43 44 45 48 49 48 48 49 51 52 49 49 48 46 40 40 43 42 45 47 48 48 45 45 47 49 52 53 50 54 54 50 48 46 42 38
30 27 26 30 30 30 30 33 32 35 38 38 41 43 46 49 51 51 51 51 53 56 57 55 54 53 53 52 48 45 49 49 51 51 50 51 52 50 52 54 54 53 52 50 56 57 54 50 42
33 33 31 35 37 37 37 40 41 43 46 49 51 52 51 52 52 54 56 58 57 57 58 58 58 57 56 57 57 54 53 55 54 54 55 54 56 56 54 54 52 60 58 57 57 59 64 54 49
35 38 37 37 39 41 46 47 48 51 52 53 53 54 54 52 51 52 53 55 56 58 60 61 61 59 60 62 62 61 61 59 60 59 58 59 60 62 61 58 56 52 54 25 59 64 64 65 56
36 39 42 43 43 48 46 46 49 50 53 55 54 53 52 53 55 56 58 59 60 60 61 61 63 63 62 62 63 65 64 63 64 65 67 65 65 66 68 67 61 58 65 65 59 56 65 63 63
39 40 43 44 48 47 45 48 50 51 51 50 51 53 56 58 60 61 60 60 62 64 66 67 69 71 71 71 70 71 71 71 69 69 69 72 72 72 73 74 73 67 65 62 65 61 55 59 62
40 43 44 46 49 51 50 50 50 51 51 53 55 56 58 59 60 62 63 65 66 68 69 71 72 74 75 75 76 77 73 71 73 73 72 69 69 75 80 80 79 77 73 67 65 60 64 51 44
44 46 47 49 50 51 51 50 49 50 52 55 55 56 56 58 60 61 63 65 67 69 71 74 75 76 76 75 73 72 71 67 63 65 67 70 72 74 78 83 86 82 78 72 69 65 60 51 44
45 45 45 45 46 47 49 52 49 50 54 54 55 54 56 57 59 61 63 66 67 68 69 68 66 65 64 64 64 65 64 62 60 61 63 66 69 72 77 79 85 85 82 75 71 69 65 61 55
45 45 46 47 49 51 54 55 51 54 54 54 54 58 59 59 60 61 64 64 63 63 62 58 57 57 57 59 61 63 64 65 62 63 64 68 68 74 76 72 79 88 83 81 73 70 67 62 52
45 47 47 48 50 53 50 52 51 53 55 55 56 56 57 59 60 60 57 57 57 59 58 56 58 60 61 63 63 64 65 66 67 69 72 69 69 68 72 71 71 75 86 82 78 72 69 62 57
45 46 49 51 51 52 52 56 54 53 55 56 57 54 55 56 55 53 54 54 53 52 53 56 58 55 54 52 49 50 51 51 54 56 59 59 58 60 63 65 66 67 72 78 77 74 69 64 61
45 45 47 50 52 52 53 57 54 55 57 56 53 50 51 52 52 52 50 49 50 49 47 45 43 44 46 45 44 45 47 49 52 57 59 57 54 57 58 55 59 60 63 64 68 74 70 64 61
38 40 42 45 48 51 52 53 54 54 53 52 49 49 50 49 48 48 46 42 41 42 42 40 39 39 39 40 36 34 34 41 38 40 36 46 55 49 47 45 45 50 53 55 58 60 67 62 61
37 40 41 42 45 49 49 51 53 51 49 47 45 48 49 49 45 43 41 39 36 36 34 31 29 28 27 26 29 35 37 38 34 31 28 27 29 35 37 36 33 39 44 48 49 51 60 62 60
39 39 39 40 43 46 50 50 47 48 48 48 47 49 47 43 42 40 37 34 30 25 22 19 16 18 21 27 30 33 40 31 21 19 20 22 22 23 28 30 29 30 34 36 37 38 47 55 58
37 37 39 41 42 44 50 47 43 46 47 42 43 43 43 42 39 33 31 30 22 19 17 11 14 16 23 31 35 32 27 15 12 14 13 11 11 14 16 18 24 28 32 33 32 34 37 45 53
Wind_Direction
305 302 295 289 280 279 277 279 276 269 272 267 261 260 259 266 268 278 281 284 295 304 308 307 304 300 298 295 295 296 291 284 282 280 278 280 290 296 303 308 311 316 312 307 306 302 301 301 300
300 296 289 281 275 270 270 270 271 279 276 272 273 271 263 260 269 277 274 278 286 290 300 303 301 298 295 294 292 292 292 287 281 276 279 285 289 292 298 304 309 311 312 314 306 300 295 295 300
296 290 284 274 266 262 263 264 268 270 269 270 269 271 270 266 278 279 278 275 279 288 292 290 288 291 292 291 288 287 287 289 286 279 275 278 285 288 293 298 300 304 309 309 306 302 298 294 294
296 283 275 266 261 259 263 263 262 267 269 270 266 261 261 265 270 271 269 264 271 273 275 279 286 289 293 292 290 287 284 283 283 281 279 277 280 283 287 291 292 297 298 300 302 301 298 296 293
301 286 271 261 260 261 263 267 266 263 268 272 275 278 277 280 279 277 272 270 268 268 270 276 281 284 284 283 283 284 281 277 277 278 277 278 278 280 282 283 285 289 293 295 296 295 292 289 284
309 294 272 261 260 260 263 266 268 267 265 266 272 275 278 278 277 273 268 267 270 271 272 273 274 275 277 279 282 282 281 278 275 274 274 273 273 276 277 278 282 287 290 293 293 293 288 284 281
310 302 277 263 261 262 261 262 267 271 273 275 275 278 281 279 275 269 263 260 262 268 271 273 274 274 276 278 278 278 278 279 276 273 273 273 274 272 272 274 276 280 286 289 292 292 288 282 278
309 302 282 265 262 262 263 263 266 270 275 279 277 274 269 269 268 266 263 264 265 270 272 272 273 276 281 282 279 277 275 274 275 276 273 272 272 273 272 272 273 275 278 284 286 287 286 278 275
305 297 282 270 262 264 266 265 266 271 275 278 278 275 272 270 269 269 275 276 272 272 273 270 271 276 277 275 271 271 276 277 276 273 271 272 273 271 271 273 274 275 276 276 277 278 277 275 273
297 293 285 275 264 262 264 266 266 265 269 269 269 271 275 276 280 286 287 282 276 270 267 268 268 268 273 274 273 275 271 268 266 269 270 269 269 270 269 269 270 272 272 269 269 269 268 267 268
291 289 289 281 275 265 262 262 267 272 275 274 280 281 275 282 284 284 284 280 274 270 267 267 268 266 266 269 273 271 273 268 263 260 261 266 268 265 264 265 266 266 266 264 264 266 265 263 262
286 286 275 274 274 275 271 273 276 276 269 273 275 280 287 290 290 288 286 282 273 276 282 274 270 261 260 266 268 267 264 271 268 262 264 259 261 266 267 264 266 267 264 260 259 260 260 259 256
281 279 268 272 277 278 279 289 291 280 277 274 277 283 286 287 288 290 287 286 284 284 282 281 277 269 269 268 268 262 259 262 265 264 264 258 253 257 263 265 264 262 262 260 255 253 253 253 253
277 276 272 266 269 276 277 273 279 279 283 284 284 285 286 285 287 288 284 282 283 285 289 284 278 275 270 265 261 264 256 258 261 264 265 261 258 256 254 257 262 268 261 259 257 254 251 248 246
275 271 272 274 277 276 273 272 271 276 281 279 281 283 286 285 282 280 279 279 281 282 282 279 277 276 273 269 265 260 262 259 260 259 259 261 259 258 259 256 263 263 261 263 262 252 247 246 241
271 267 266 274 278 278 279 280 281 283 283 284 283 282 281 281 281 280 278 278 278 278 279 278 276 274 271 269 266 263 259 259 259 259 259 257 259 259 257 259 257 259 262 257 258 262 254 240 242
273 271 270 272 274 280 282 283 284 285 285 283 284 284 284 280 279 278 277 277 277 277 278 276 274 273 270 269 268 266 264 259 257 259 259 259 259 260 257 253 256 254 252 239 243 246 262 246 238
274 273 273 275 277 281 282 282 283 283 283 282 282 281 280 279 279 279 279 279 278 276 274 272 271 270 268 269 269 269 268 265 260 257 256 256 256 257 259 257 250 251 251 246 257 247 252 273 244
281 280 280 280 281 282 282 284 285 285 284 282 281 282 282 282 281 281 280 279 278 277 277 276 276 275 274 273 271 274 274 272 269 264 258 255 255 254 254 257 257 251 251 253 255 258 265 259 257
284 283 283 282 283 284 284 284 284 283 281 281 281 280 280 282 282 282 283 283 283 282 281 280 280 279 278 277 276 276 275 272 269 267 266 261 258 253 253 254 254 254 251 251 252 252 255 259 253
280 279 279 279 280 283 283 283 282 283 284 284 282 282 281 281 280 281 281 281 282 282 281 281 281 280 280 279 277 276 275 272 266 261 262 261 257 253 248 249 252 254 255 250 251 250 250 250 245
278 278 277 277 278 279 279 280 284 285 282 281 281 281 281 281 282 281 281 281 281 281 281 281 281 281 282 281 280 277 273 267 264 258 258 258 259 256 252 249 249 253 254 253 248 252 249 247 257
278 279 279 280 281 280 282 283 286 285 285 284 284 283 284 286 286 286 287 287 287 287 287 287 286 283 280 279 279 277 275 272 272 270 269 270 265 259 256 253 250 251 252 253 250 248 249 249 246
281 281 280 278 277 277 281 282 284 283 283 284 285 287 289 288 288 288 287 287 287 288 286 284 284 283 281 281 279 277 274 272 271 272 272 270 267 263 258 255 251 253 254 253 251 248 248 246 245
279 278 278 277 277 279 279 278 282 282 284 288 292 294 292 289 286 286 289 288 287 285 285 285 285 286 286 285 283 281 280 276 271 269 267 265 264 262 261 256 248 253 255 252 254 248 247 247 243
278 277 277 279 278 279 281 283 286 288 289 291 291 292 287 286 287 290 290 289 288 290 290 290 291 289 289 289 286 284 284 284 282 277 268 264 259 257 258 258 248 254 257 257 251 248 244 246 244
277 276 276 277 279 280 282 286 289 290 291 292 295 292 293 293 291 292 293 293 293 293 293 295 295 295 292 292 295 293 294 299 294 287 280 264 262 263 255 255 250 251 251 256 250 247 243 243 244
276 274 276 279 282 283 289 289 294 295 299 302 303 298 296 296 297 297 297 297 296 293 294 297 299 297 295 291 288 302 303 300 296 294 281 279 268 255 251 250 248 247 245 252 248 243 243 241 244
274 275 279 280 284 289 295 294 302 304 303 302 296 294 295 295 296 298 299 299 295 289 296 299 302 306 311 310 306 311 307 303 301 294 288 282 275 264 254 249 240 242 243 245 239 236 241 243 244
270 277 281 285 289 293 294 301 303 301 299 295 288 290 291 292 294 299 302 299 289 296 299 311 314 311 317 315 316 320 320 316 332 322 307 292 285 267 252 252 247 242 239 240 239 236 236 244 246